Terminal Aerodrome Forecast
Issued by NWS St Louis, MO

Home | Current Version | Previous Version | Text Only | Print | Product List | Glossary On
Versions: 1 2 3 4 5 6 7 8 9 10 11 12 13 14 15 16 17 18 19 20 21 22 23 24 25 26 27 28 29 30 31 32 33 34 35
891
FTUS43 KLSX 300520
TAFSTL
TAF
KSTL 300520Z 3006/3112 13012KT 5SM -TSRA SCT025CB OVC060
      TEMPO 3006/3010 2SM TSRA OVC025CB
     FM301400 17007KT P6SM VCTS BKN045CB
     FM301800 21013KT P6SM SHRA VCTS SCT025CB BKN060
     FM310200 24008KT P6SM BKN040
     FM310600 29008KT P6SM OVC015=

USA.gov is the U.S. government's official web portal to all federal, state and local government web resources and services.